User: anonymous   Login
Location: Anjeux
(47.8815°N, 6.2076°E)
Time: 01:21:03
(UTC+00:00)
Language:

BEESAT - Orbit

View from above orbital plane
View from above orbital plane
View from above satellite
View from above satellite

Ground track
Ground track

The orbit data is extracted from the following two-line orbital elements,

1 35933U 09051C   22330.06329442  .00000572  00000-0  13772-3 0  9995
2 35933  98.5388 191.8676 0004667 289.3094  70.7599 14.57081803699707
Epoch (UTC): 26 November 2022 01:31:08
Eccentricity: 0.0004667
inclination: 98.5388°
perigee height: 699 km
apogee height: 706 km
right ascension of ascending node: 191.8676°
argument of perigee: 289.3094°
revolutions per day: 14.57081803
mean anomaly at epoch: 70.7599°
orbit number at epoch: 69970

The dashed part of the orbit path shows where the satellite is in the earth's shadow,  

DLR